Météo par heure à Alife

Ce jour, 26 Octobre, Lundi

Heure Température Précipitation Vent Pression Humidité
00:00 +14°C° 0 mm 1 m/s 741 mmHg 92%
01:00 +14°C° 0 mm 1 m/s 741 mmHg 93%
02:00 +13°C° 0 mm 1 m/s 741 mmHg 93%
03:00 +13°C° 0 mm 1 m/s 741 mmHg 93%
04:00 +13°C° 0 mm 1 m/s 741 mmHg 93%
05:00 +13°C° 0 mm 1 m/s 740 mmHg 93%
06:00 +13°C° 0 mm 1 m/s 740 mmHg 93%
07:00 +13°C° 0 mm 1 m/s 740 mmHg 93%
08:00 +15°C° 0 mm 2 m/s 740 mmHg 86%
09:00 +16°C° 0 mm 2 m/s 740 mmHg 80%
10:00 +18°C° 0 mm 3 m/s 741 mmHg 74%
11:00 +18°C° 0 mm 3 m/s 740 mmHg 72%
12:00 +19°C° 0 mm 3 m/s 740 mmHg 70%
13:00 +19°C° 0 mm 4 m/s 739 mmHg 68%
14:00 +19°C° 0.1 mm 3 m/s 739 mmHg 71%
15:00 +18°C° 0.1 mm 3 m/s 739 mmHg 73%
16:00 +18°C° 0.1 mm 3 m/s 739 mmHg 76%
17:00 +17°C° 0.1 mm 3 m/s 739 mmHg 80%
18:00 +16°C° 0.1 mm 3 m/s 738 mmHg 84%
19:00 +16°C° 0.1 mm 2 m/s 738 mmHg 89%
20:00 +15°C° 0.1 mm 2 m/s 738 mmHg 89%
21:00 +15°C° 0.1 mm 2 m/s 738 mmHg 90%
22:00 +15°C° 0.1 mm 2 m/s 738 mmHg 90%
23:00 +15°C° 0.1 mm 2 m/s 738 mmHg 91%

Demain, 27 Octobre, Mardi

Heure Température Précipitation Vent Pression Humidité
00:00 +15°C° 0.1 mm 2 m/s 738 mmHg 91%
01:00 +15°C° 0.1 mm 2 m/s 738 mmHg 91%
02:00 +15°C° 0.4 mm 2 m/s 738 mmHg 91%
03:00 +15°C° 0.4 mm 2 m/s 738 mmHg 91%
04:00 +15°C° 0.4 mm 2 m/s 737 mmHg 92%
05:00 +15°C° 0.5 mm 2 m/s 737 mmHg 92%
06:00 +15°C° 0.5 mm 2 m/s 737 mmHg 93%
07:00 +15°C° 0.5 mm 2 m/s 737 mmHg 93%
08:00 +16°C° 0.7 mm 2 m/s 737 mmHg 91%
09:00 +16°C° 0.7 mm 2 m/s 737 mmHg 89%
10:00 +17°C° 0.7 mm 2 m/s 738 mmHg 87%
11:00 +17°C° 1 mm 2 m/s 737 mmHg 83%
12:00 +17°C° 1 mm 2 m/s 737 mmHg 80%
13:00 +17°C° 1 mm 2 m/s 737 mmHg 77%
14:00 +17°C° 0.4 mm 2 m/s 737 mmHg 78%
15:00 +16°C° 0.4 mm 2 m/s 737 mmHg 80%
16:00 +16°C° 0.4 mm 1 m/s 737 mmHg 81%
17:00 +15°C° 0 mm 1 m/s 738 mmHg 83%
18:00 +14°C° 0 mm 1 m/s 738 mmHg 85%
19:00 +13°C° 0 mm 1 m/s 738 mmHg 87%
20:00 +13°C° 0 mm 1 m/s 738 mmHg 87%
21:00 +13°C° 0 mm 1 m/s 738 mmHg 87%
22:00 +12°C° 0 mm 0 m/s 739 mmHg 87%
23:00 +13°C° 0.1 mm 1 m/s 739 mmHg 87%

Après-demain, 28 Octobre, Mercredi

Heure Température Précipitation Vent Pression Humidité
00:00 +13°C° 0.1 mm 1 m/s 738 mmHg 87%
01:00 +13°C° 0.1 mm 1 m/s 738 mmHg 86%
02:00 +13°C° 0.1 mm 1 m/s 738 mmHg 86%
03:00 +13°C° 0.1 mm 1 m/s 738 mmHg 86%
04:00 +13°C° 0.1 mm 1 m/s 738 mmHg 86%
05:00 +13°C° 0 mm 1 m/s 739 mmHg 85%
06:00 +13°C° 0 mm 1 m/s 739 mmHg 85%
07:00 +13°C° 0 mm 1 m/s 739 mmHg 85%
08:00 +14°C° 0 mm 1 m/s 740 mmHg 79%
09:00 +16°C° 0 mm 1 m/s 740 mmHg 73%
10:00 +18°C° 0 mm 1 m/s 740 mmHg 68%
11:00 +19°C° 0 mm 1 m/s 740 mmHg 65%
12:00 +19°C° 0 mm 1 m/s 740 mmHg 62%
13:00 +20°C° 0 mm 1 m/s 740 mmHg 59%
14:00 +20°C° 0 mm 1 m/s 740 mmHg 61%
15:00 +20°C° 0 mm 1 m/s 741 mmHg 63%
16:00 +19°C° 0 mm 1 m/s 741 mmHg 65%
17:00 +18°C° 0 mm 1 m/s 741 mmHg 69%
18:00 +16°C° 0 mm 1 m/s 741 mmHg 73%
19:00 +14°C° 0 mm 0 m/s 741 mmHg 77%
20:00 +13°C° 0 mm 0 m/s 742 mmHg 79%
21:00 +13°C° 0 mm 0 m/s 742 mmHg 80%
22:00 +12°C° 0 mm 0 m/s 742 mmHg 82%
23:00 +12°C° 0 mm 0 m/s 742 mmHg 82%

29 Octobre, Jeudi

Heure Température Précipitation Vent Pression Humidité
00:00 +12°C° 0 mm 0 m/s 742 mmHg 83%
01:00 +12°C° 0 mm 0 m/s 742 mmHg 83%
02:00 +12°C° 0 mm 0 m/s 743 mmHg 83%
03:00 +11°C° 0 mm 0 m/s 743 mmHg 83%
04:00 +11°C° 0 mm 0 m/s 743 mmHg 84%
05:00 +11°C° 0 mm 0 m/s 743 mmHg 84%
06:00 +11°C° 0 mm 0 m/s 743 mmHg 84%
07:00 +11°C° 0 mm 0 m/s 743 mmHg 83%
08:00 +13°C° 0 mm 0 m/s 744 mmHg 76%
09:00 +15°C° 0 mm 0 m/s 744 mmHg 69%
10:00 +16°C° 0 mm 0 m/s 745 mmHg 62%
11:00 +19°C° 0 mm 1 m/s 745 mmHg 57%
12:00 +20°C° 0 mm 1 m/s 745 mmHg 52%
13:00 +21°C° 0 mm 1 m/s 745 mmHg 47%
14:00 +20°C° 0 mm 1 m/s 745 mmHg 51%
15:00 +19°C° 0 mm 1 m/s 745 mmHg 56%
16:00 +19°C° 0 mm 1 m/s 745 mmHg 60%
17:00 +16°C° 0 mm 1 m/s 745 mmHg 65%
18:00 +15°C° 0 mm 1 m/s 746 mmHg 69%
19:00 +14°C° 0 mm 1 m/s 746 mmHg 74%
20:00 +14°C° 0 mm 1 m/s 746 mmHg 75%
21:00 +13°C° 0 mm 1 m/s 747 mmHg 75%
22:00 +13°C° 0 mm 1 m/s 747 mmHg 76%
23:00 +13°C° 0 mm 1 m/s 747 mmHg 77%

30 Octobre, Vendredi

Heure Température Précipitation Vent Pression Humidité
00:00 +13°C° 0 mm 1 m/s 747 mmHg 77%
01:00 +13°C° 0 mm 1 m/s 747 mmHg 78%
02:00 +12°C° 0 mm 1 m/s 747 mmHg 78%
03:00 +12°C° 0 mm 1 m/s 747 mmHg 78%
04:00 +12°C° 0 mm 1 m/s 747 mmHg 78%
05:00 +12°C° 0 mm 1 m/s 747 mmHg 79%
06:00 +12°C° 0 mm 1 m/s 747 mmHg 79%
07:00 +12°C° 0 mm 1 m/s 747 mmHg 79%
08:00 +14°C° 0 mm 1 m/s 748 mmHg 73%
09:00 +16°C° 0 mm 1 m/s 748 mmHg 66%
10:00 +17°C° 0 mm 0 m/s 748 mmHg 59%
11:00 +18°C° 0 mm 0 m/s 748 mmHg 57%
12:00 +21°C° 0 mm 1 m/s 748 mmHg 54%
13:00 +21°C° 0 mm 1 m/s 748 mmHg 51%
14:00 +21°C° 0 mm 1 m/s 748 mmHg 55%
15:00 +20°C° 0 mm 1 m/s 748 mmHg 59%
16:00 +20°C° 0 mm 1 m/s 748 mmHg 63%
17:00 +18°C° 0 mm 1 m/s 748 mmHg 68%
18:00 +16°C° 0 mm 1 m/s 748 mmHg 74%
19:00 +14°C° 0 mm 1 m/s 748 mmHg 79%
20:00 +14°C° 0 mm 1 m/s 748 mmHg 80%
21:00 +14°C° 0 mm 1 m/s 748 mmHg 80%
22:00 +13°C° 0 mm 1 m/s 748 mmHg 81%
23:00 +13°C° 0 mm 1 m/s 748 mmHg 81%

31 Octobre, Samedi

Heure Température Précipitation Vent Pression Humidité
00:00 +13°C° 0 mm 1 m/s 747 mmHg 81%
01:00 +13°C° 0 mm 1 m/s 747 mmHg 81%
02:00 +13°C° 0 mm 1 m/s 747 mmHg 81%
03:00 +13°C° 0 mm 1 m/s 747 mmHg 82%
04:00 +12°C° 0 mm 1 m/s 747 mmHg 82%
05:00 +12°C° 0 mm 1 m/s 747 mmHg 82%
06:00 +12°C° 0 mm 1 m/s 747 mmHg 82%
07:00 +12°C° 0 mm 1 m/s 746 mmHg 82%
Voir plus

Nous avons besoin de votre consentement

Meteoprog et ses fournisseurs de services peuvent stocker et accéder à des données personnelles telles que des cookies, des identifiants d'appareils ou d'autres technologies similaires sur votre appareil et traiter ces données pour personnaliser le contenu et les publicités, ainsi que pour fournir des fonctionnalités de médias sociaux et analyser le trafic.

  • Stocker et/ou accéder à des informations sur votre appareil

    Des cookies, des identifiants d'appareils ou d'autres informations peuvent être stockés ou accessibles sur votre appareil aux fins indiquées ci-dessus.

  • Annonces et contenus personnalisés, mesure des annonces et des contenus, connaissance de l'audience et développement de produits

    Les annonces et le contenu peuvent être personnalisés en fonction d'un profil. D'autres données peuvent être ajoutées pour mieux personnaliser les annonces et le contenu. Les performances des publicités et du contenu peuvent être mesurées. Il est possible d'obtenir des informations sur le public qui a vu les publicités et le contenu. Ces données peuvent être utilisées pour développer ou améliorer l'expérience de l'utilisateur, les systèmes et les logiciels.

En cliquant sur "J'accepte", vous autorisez l'utilisation de cookies, des identifiants d'appareils, des balises web ou d'autres technologies similaires. Vos paramètres peuvent être modifiés dans le navigateur de votre appareil.

Dans certains cas, des intérêts légitimes peuvent être invoqués plutôt qu'un consentement. Vous pouvez en savoir plus à ce sujet dans notre Politique de confidentialité et de cookies.